NOAA 16 DEB, 41275

Orbit data source: Space-Track

NOAA 16 DEB, 41275 is space debris in SSO originally from a launch on Thu, 21 Sep 2000 UTC launched from the Air Force Western Test Range (AFWTR). Debris objects in space refer to the collection of defunct objects orbiting the Earth. Examples of debris include non-operational satellites, rocket bodies, and fragments generated from explosions, collisions, or faulty payload assembly.

Loading next visibility...
Identifier
41275, 2000-055GB
Orbit
SSO
Country
Flag of USUS
Related business
Manufacturer
Unknown
Mission
Spacecraft
Bus & Motor
Unknown
Mass
Unknown
Launch date (UTC)
2000-09-21 (25 years ago)
Launch vehicle
Unknown
Launch site
Air Force Western Test Range (AFWTR)
Object type
Payload
Rocket body
Debris
Shape & HBR
Unknown shape, 0.1 m
Radar Cross Section
Small (<0.1 m²)

Expand to show TLE details & history
Last TLE update: 3 days ago

TLE from 3 days ago
0 NOAA 16 DEB
1 41275U 00055GB  26034.09974581  .00003893  00000-0  16337-2 0  9992
2 41275  98.6816  89.3850 0021549 191.7224 168.3457 14.26357939522090
Epoch: 2026-02-03T02:23Z
TLE epoch observation values (Epoch: 2026-02-03T02:23:38.037Z)
Latitude
-0.00006°
Longitude
-79.80901°
Altitude
822.017 km
Speed
7.434 km/s
True Right ascension
05h 57m 32s
True Declination
0° 00' 00"
Sunlit
Object was in full shadow at epoch
Visualization orbit readout
Latitude
Unknown
Longitude
Unknown
Altitude
Unknown
Speed
Unknown
Apparent Right ascension
Unknown
Apparent Declination
Unknown
Sunlit
N/A
Visualization observer readout
Local Sidereal Time
23:10:17
Azimuth
Unknown
Elevation
Unknown
Doppler factor
Unknown
Orbital elements
Apogee altitude
816.55 km
Perigee altitude
785.609 km
Semi-major axis
7,179.216 km
Eccentricity
0.00215
Inclination
98.6816°
RAAN
89.385°
Arg. of periapsis
191.7224°
True anomaly
168.39545°
Mean anomaly
168.3457°
Eccentric anomaly
168.37059°
Mean motion
3.56802 °/min
Orbital period
100.9 mins
BSTAR
0.0016337
Loading maneuver chart data...
Computing Atmospheric mass density...
Loading historical data...
Loading historical data...
Loading historical data...
Loading historical data...
Loading historical data...
Loading historical data...
Loading historical data...

Documentation

Showing up to 5 results
|